Theta_e
328 328 328 328 328 329 329 330 330 331 331 333 333 334 334 334 334 335 335 335 335 335 334 334 334 333 332 332 331 331 331 331 331 331 331 331 333 334 334 333 330 330
326 326 326 326 327 328 328 329 329 330 331 332 332 332 333 333 333 334 334 334 335 335 335 334 334 333 332 331 330 330 330 330 330 331 330 330 331 333 334 333 330 331
324 325 326 326 327 327 327 327 328 329 330 330 331 331 332 332 333 333 333 334 334 334 334 334 334 333 333 331 329 330 331 330 330 330 329 329 330 331 332 333 333 333
323 324 325 325 325 325 325 325 326 327 327 327 329 330 332 332 332 332 333 333 334 333 334 334 333 333 333 332 330 331 331 330 329 329 328 328 329 331 332 333 333 332
323 323 323 323 324 324 323 324 324 324 325 325 326 327 329 331 331 332 332 333 333 333 333 333 333 333 332 331 331 331 331 330 330 329 329 329 329 330 332 332 332 330
322 322 322 322 322 322 322 323 323 323 324 325 326 326 327 329 330 330 331 332 333 333 332 333 333 331 331 331 331 331 331 331 331 330 329 330 330 330 330 331 330 330
320 320 321 321 321 322 322 323 323 323 323 323 325 326 326 327 328 329 330 331 331 332 332 332 332 331 330 330 330 330 330 331 331 330 330 331 330 330 330 330 330 329
320 319 320 320 321 322 323 323 323 321 320 321 321 322 324 325 327 328 330 331 330 331 331 331 331 331 330 330 330 330 330 330 330 330 330 331 331 330 330 330 330 329
319 319 320 320 321 322 321 321 320 318 318 317 318 318 320 322 324 327 329 330 330 330 331 331 331 331 330 330 330 330 330 330 330 330 330 331 331 330 330 330 331 330
318 319 319 319 320 320 319 317 317 316 316 315 315 316 317 318 321 324 327 328 329 329 330 330 331 331 330 330 330 330 330 331 331 331 331 331 331 330 329 330 331 332
317 318 318 319 319 318 317 316 315 314 314 314 314 314 315 317 319 322 324 325 327 328 329 329 330 330 329 330 331 331 331 331 331 331 331 331 331 329 328 329 331 331
317 317 318 318 318 316 315 314 314 313 313 313 313 313 314 315 317 319 321 323 325 326 328 329 329 329 328 329 330 331 331 330 331 331 330 331 330 328 328 328 330 330
315 316 317 317 316 314 314 313 313 312 312 312 312 311 312 313 314 315 317 319 321 324 326 327 328 328 328 328 329 330 331 331 330 330 330 330 330 328 328 328 329 329
314 315 315 315 314 313 313 312 312 312 311 310 310 310 310 310 311 312 314 316 318 320 323 325 326 326 326 326 328 329 330 331 330 330 329 329 329 328 327 328 328 328
314 314 314 314 314 313 312 311 311 311 310 309 309 309 308 308 308 308 310 312 315 317 319 321 323 323 323 325 327 328 330 330 330 330 329 327 328 327 326 327 327 327
313 313 313 313 313 312 311 310 310 309 308 308 308 307 307 307 307 306 307 308 311 314 315 317 319 320 321 323 325 328 329 329 329 330 329 327 328 328 327 328 328 327
313 313 313 313 312 311 310 309 309 308 308 307 307 306 306 306 305 305 305 306 308 311 312 312 314 317 319 321 324 326 327 328 329 329 328 327 327 327 327 328 327 327
312 313 312 312 311 310 309 309 308 308 307 307 306 305 305 305 304 304 304 304 306 308 310 310 311 314 318 320 323 324 326 327 328 328 327 326 326 327 327 327 327 327
311 312 311 310 309 309 309 308 308 307 307 306 306 305 305 304 304 304 303 303 304 306 308 309 310 312 316 319 321 323 324 326 327 327 327 326 325 325 326 326 327 327
311 311 310 308 308 308 308 307 307 307 307 306 305 305 304 304 304 303 303 303 303 304 306 308 309 310 315 318 320 322 324 325 325 325 325 325 325 325 326 326 327 327
310 310 309 308 307 307 308 307 306 305 306 306 305 305 304 304 303 303 303 302 302 303 305 307 308 310 314 318 320 322 323 324 324 325 325 325 325 326 325 324 325 326
308 308 308 308 306 306 306 306 304 304 305 305 305 304 304 303 303 302 302 302 302 302 303 306 309 311 314 318 321 322 323 324 324 324 324 324 323 323 324 323 324 326
307 307 307 307 306 305 304 304 303 303 303 304 304 303 303 303 302 302 301 301 301 301 302 304 308 312 315 319 321 321 322 323 322 321 320 320 319 320 322 323 324 324
305 305 305 306 306 305 304 303 302 302 302 302 303 303 302 302 302 301 301 301 300 300 301 303 307 312 316 318 318 318 318 318 318 318 317 315 315 315 317 320 323 323
304 304 303 303 304 305 304 303 301 301 301 301 301 302 302 302 302 301 301 300 300 300 301 302 305 308 313 315 316 317 316 315 316 316 314 313 313 313 314 316 318 320
303 302 302 301 302 303 304 303 301 300 300 300 300 301 301 301 302 301 300 300 300 300 300 301 302 304 308 311 313 315 314 313 313 313 312 311 310 310 312 313 314 316
Wind_Speed
10 11 11 11 12 13 13 14 15 15 16 16 15 16 16 16 16 16 17 17 17 17 18 19 20 21 21 21 21 21 21 21 23 24 25 26 27 27 29 29 28 28
12 11 11 12 13 14 15 15 15 16 17 16 16 16 16 16 16 17 18 18 17 18 18 18 19 20 19 19 20 20 20 21 22 22 23 26 28 28 28 27 26 26
13 12 12 14 15 15 16 15 14 15 17 17 17 17 16 16 16 17 18 18 19 19 19 17 16 16 17 17 15 17 19 19 20 21 23 27 29 27 27 27 26 26
13 14 15 16 16 16 17 16 15 17 18 18 18 18 17 17 17 17 18 18 19 20 20 19 16 14 16 17 16 17 18 17 18 20 24 27 28 27 26 26 26 28
14 15 16 17 17 17 17 17 18 18 18 19 18 18 18 18 18 18 18 18 17 18 18 19 17 15 17 17 17 17 16 16 19 22 24 26 27 28 27 25 24 25
15 15 16 16 15 15 17 18 19 20 21 21 21 21 20 20 20 20 19 18 18 17 17 18 18 18 18 16 16 16 16 18 21 20 21 24 25 27 28 26 25 25
16 16 15 15 15 17 18 18 20 22 23 23 23 23 23 22 22 21 19 18 19 18 16 17 18 18 18 16 16 17 18 19 20 20 22 24 24 25 27 26 26 26
18 17 16 17 20 22 21 19 20 22 23 23 23 23 23 22 22 22 20 19 19 18 17 18 19 18 18 18 18 18 18 18 20 21 23 23 23 24 26 25 25 26
19 18 19 22 24 24 23 22 22 24 25 24 24 23 22 21 20 21 20 19 19 18 18 19 19 19 18 19 19 19 18 18 19 22 23 23 23 24 24 24 24 25
19 19 22 25 25 23 24 25 25 26 26 25 25 25 24 21 19 19 20 20 20 20 19 19 18 19 20 20 19 18 17 17 19 21 22 23 23 22 22 22 23 25
20 22 25 26 24 24 26 26 26 27 26 25 25 26 25 23 20 20 21 22 22 21 21 21 19 20 21 21 20 18 17 17 18 20 21 22 23 23 23 24 25 25
23 24 25 25 25 25 27 27 27 27 25 24 25 26 25 24 22 22 22 22 23 22 20 20 20 20 21 21 20 18 18 18 19 20 21 22 23 23 23 26 27 25
25 26 25 24 26 27 27 27 26 26 25 24 24 25 25 24 24 24 23 21 22 22 20 18 18 19 21 22 21 19 19 19 19 19 21 23 23 21 21 23 25 25
24 27 26 25 26 27 27 27 26 25 25 24 23 25 25 23 24 26 23 22 21 21 20 19 17 18 20 20 20 20 20 20 20 20 20 22 22 20 20 22 23 25
24 25 26 25 26 27 27 26 25 25 25 25 24 25 24 23 25 26 25 23 22 22 21 20 18 17 17 17 17 18 19 19 19 20 19 20 21 18 18 21 21 23
23 24 24 25 25 26 26 26 25 26 27 26 25 26 25 23 24 26 26 25 25 23 22 21 20 19 18 17 16 16 16 17 18 18 17 17 17 15 14 16 18 21
23 23 23 24 24 24 25 26 25 26 27 26 26 28 27 24 25 28 28 27 27 25 22 21 21 22 20 18 17 17 16 16 17 17 14 13 14 13 11 13 17 18
23 23 24 24 24 24 25 25 25 25 26 26 26 28 27 26 28 31 31 29 29 28 25 22 22 23 20 17 18 18 16 15 15 14 10 8 10 12 10 12 15 15
23 24 25 25 25 25 26 25 25 25 26 26 26 27 27 27 29 31 32 31 30 30 28 24 24 24 20 16 16 16 15 13 12 13 10 5 6 9 10 11 13 13
23 23 25 27 26 26 26 27 26 26 26 25 25 27 27 28 29 31 31 32 32 32 29 26 25 25 21 15 12 13 12 9 6 8 7 3 3 5 8 11 11 12
23 23 23 26 27 26 26 27 27 27 26 25 25 25 26 27 28 29 30 32 34 34 32 30 29 27 21 14 9 7 6 2 2 2 2 4 4 5 9 9 8 9
22 22 22 23 26 28 27 26 27 27 25 24 24 25 26 27 28 29 30 32 34 36 35 33 33 30 21 12 5 5 8 8 8 8 9 8 6 4 6 7 7 8
23 23 23 22 24 27 28 27 27 27 25 23 23 24 26 27 28 30 31 32 34 36 36 35 36 34 25 15 10 13 16 16 15 15 14 13 11 8 5 5 6 8
26 25 25 24 23 24 25 27 28 27 26 25 23 23 25 27 28 30 32 33 34 36 36 37 37 34 27 22 19 18 18 19 20 20 20 19 18 17 13 10 8 7
26 27 26 26 24 23 22 24 26 26 25 26 26 25 25 27 29 30 32 34 35 37 39 40 39 34 27 23 20 19 20 22 23 24 25 25 24 24 23 18 13 9
24 26 27 26 24 22 22 23 25 26 26 26 27 27 28 28 29 29 31 33 35 37 40 41 40 37 31 25 23 22 23 26 27 29 30 30 29 29 28 26 21 16
Wind_Direction
22 16 11 8 4 358 354 350 347 343 341 338 334 331 325 319 313 309 303 299 293 286 282 278 275 273 272 266 261 262 264 265 265 260 254 249 244 239 236 234 230 226
17 11 9 7 3 0 356 352 348 346 343 339 336 333 329 322 315 310 305 301 296 290 288 289 287 284 280 268 264 268 266 261 261 258 254 253 249 240 237 238 233 225
16 15 13 8 4 1 356 350 349 351 348 345 341 335 331 326 319 312 307 302 298 295 294 296 297 292 286 278 272 273 269 263 259 256 255 254 251 246 241 239 233 225
19 17 14 12 9 4 359 355 353 352 350 348 346 342 337 332 324 317 310 304 299 299 296 295 298 298 292 284 276 273 269 264 258 253 251 250 246 241 236 232 231 230
23 18 15 15 13 7 5 4 359 355 353 350 347 345 341 336 331 324 316 305 298 297 295 293 292 294 292 283 276 274 268 264 262 254 249 248 243 238 234 228 228 231
27 20 17 17 17 14 13 14 10 4 360 355 349 346 343 337 331 329 324 313 304 300 295 292 291 291 289 281 272 269 262 259 263 256 246 245 241 238 238 233 227 228
29 23 20 19 16 10 6 9 12 9 1 355 351 347 345 340 332 328 326 320 313 306 298 295 294 295 294 285 274 269 263 259 260 253 244 241 236 232 234 232 226 224
32 25 21 18 14 12 11 12 12 7 359 352 349 345 342 341 337 332 325 320 318 312 303 298 298 300 300 292 282 276 270 261 254 248 243 239 235 230 229 226 219 217
31 24 20 17 16 20 24 20 13 4 357 353 349 344 339 335 337 338 331 324 321 317 308 301 298 300 303 299 291 284 276 263 253 248 244 238 235 233 232 228 217 213
30 25 21 18 19 25 24 18 11 4 359 357 353 350 346 338 334 340 342 337 330 324 315 307 300 300 303 303 298 289 279 267 254 248 247 242 238 236 236 235 223 217
31 25 21 20 25 28 22 15 10 6 2 360 355 353 353 349 345 345 347 347 343 334 322 311 305 303 304 305 302 294 282 270 258 253 249 243 239 234 231 233 230 224
26 21 21 24 28 26 20 14 11 8 5 1 357 355 356 356 355 351 349 350 349 345 335 321 311 307 308 307 302 296 287 276 266 258 248 239 237 232 226 230 235 230
24 21 23 28 28 23 19 16 14 10 7 2 359 358 358 357 356 353 352 352 352 352 348 337 324 317 317 312 303 296 291 282 272 262 249 241 239 232 224 228 234 232
27 25 26 28 25 21 19 17 15 11 7 5 3 0 358 357 357 356 355 354 353 353 352 349 343 335 328 320 309 299 292 284 278 271 262 254 248 237 228 227 228 227
30 28 26 26 23 21 20 17 15 12 10 8 7 3 360 359 359 360 360 357 355 355 353 355 355 347 336 323 309 299 291 285 280 276 270 262 255 246 236 231 228 227
32 29 27 25 24 23 20 18 16 14 13 13 10 7 5 2 0 2 4 2 359 358 355 353 352 348 340 328 313 299 291 287 281 272 261 250 244 240 234 230 232 232
31 30 28 27 27 25 21 19 16 15 16 16 13 12 10 7 5 7 8 6 3 1 356 349 346 345 342 335 324 310 296 286 280 271 258 245 244 245 238 231 235 240
32 30 29 29 28 25 21 18 17 17 17 16 15 16 14 12 12 13 12 9 6 3 360 353 346 341 339 336 331 321 303 285 275 266 255 244 247 249 245 237 233 232
33 32 33 32 30 26 23 21 19 19 19 17 16 16 17 15 15 15 15 11 8 6 3 359 352 344 336 330 328 323 310 292 269 253 246 230 239 249 245 240 228 212
36 36 36 34 31 28 26 25 23 21 20 19 17 16 18 18 16 15 14 12 10 9 7 6 1 350 337 328 324 323 318 305 264 250 252 225 217 237 226 225 224 210
40 39 38 35 32 30 28 27 25 24 23 20 18 18 19 19 18 16 15 13 12 12 12 14 12 0 344 330 327 337 339 314 208 187 138 149 177 209 211 214 216 204
45 43 40 36 33 32 31 28 26 26 25 22 20 21 22 22 22 20 17 16 15 15 15 17 19 16 4 345 353 75 105 128 137 119 107 110 120 164 202 209 207 202
49 46 43 39 36 36 35 33 30 30 31 29 24 24 25 25 25 25 23 22 20 18 18 20 24 27 30 36 64 94 111 120 119 108 96 87 81 84 112 154 175 184
48 46 44 41 39 39 37 34 33 33 34 36 33 30 30 30 29 29 29 29 26 23 24 28 30 33 42 55 68 82 93 98 101 98 87 78 72 69 74 95 126 147
47 45 43 41 40 41 40 35 33 33 35 38 39 36 36 36 35 33 32 32 32 31 32 36 37 38 45 56 67 77 81 83 88 88 82 76 72 70 70 74 85 105
54 49 44 41 41 46 49 43 35 33 34 38 39 40 41 41 39 38 36 35 37 37 37 39 41 43 48 56 68 76 79 78 79 79 78 75 71 69 69 67 69 80